Location: Unspecified
(0.0000°N, 0.0000°E)
Time: 21:09:06
(UTC+00:00)

Envisat - Pass Details

Date: 16 January 2020
Orbit: 764 x 766 km, 98.1° (Epoch: 29 September)

Event Time Altitude Azimuth Distance (km) Brightness Sun altitude
Rises 05:17:40 0° 45° (NE) 3,215 6.6 -12.1°
Reaches altitude 10° 05:20:53 10° 67° (ENE) 2,293 6.2 -11.3°
Maximum altitude 05:23:49 16° 103° (ESE) 1,937 6.4 -10.7°
Drops below altitude 10° 05:26:45 10° 138° (SE) 2,299 6.6 -10.0°
Sets 05:29:58 0° 160° (SSE) 3,228 6.9 -9.2°
